#timestamp,LO_Frequency,Hit,StdDev 
1704340815.5,286047000.3,N
1704340835.4,286046999.7,N
1704340855.2,286047000.3,N
1704340875.0,286046998.3,N
1704340875.9,286046998.3,N
1704340895.8,286046998.6,N
1704340915.6,286046999.1,N
1704340935.4,286046999.4,N
1704340955.3,286047001.0,N
1704340975.1,286047000.4,N
1704340995.9,286047000.0,N
1704341015.7,286046999.9,N
1704341035.5,286047002.8,N
1704341055.4,286047000.5,N
1704341075.2,286047000.8,N
1704341095.0,286047000.4,N
1704341095.9,286047000.4,N
1704341115.8,286047000.7,N
1704341135.6,286047001.1,N
1704341155.5,286047000.8,N
1704341175.3,286047000.4,N
1704341195.1,286047002.6,N
1704341215.9,286047002.2,N
1704341235.7,286046999.9,N
1704341255.6,286047002.3,N
1704341275.4,286047002.8,N
1704341295.2,286047000.0,N
1704341315.1,286047000.7,N
1704341316.0,286047000.7,N
1704341335.8,286047000.8,N
1704341355.7,286046998.7,N
1704341375.5,286047001.0,N
1704341395.3,286047001.2,N
1704341415.2,286046999.1,N
1704341435.0,286047001.1,N
1704341435.9,286047001.1,N
1704341455.8,286047000.2,N
1704341475.6,286047000.3,N
1704341495.4,286046999.7,N
1704341515.3,286047000.2,N
1704341535.1,286047000.4,N
1704341555.8,286047000.0,N
1704341575.7,286047000.5,N
1704341595.5,286047001.0,N
1704341615.4,286047000.5,N
1704341635.2,286047001.2,N
1704341655.0,286046998.3,N
1704341655.9,286046998.3,N
1704341675.8,286046998.6,N
1704341695.6,286046999.0,N
1704341715.4,286046999.5,N
1704341735.3,286046999.6,N
1704341755.1,286046998.1,N
1704341775.9,286046999.1,N
1704341795.7,286046998.5,N
1704341815.5,286046998.9,N
1704341835.4,286046996.6,Y
1704341855.2,286046999.5,P
1704341875.1,286046999.0,P
1704341876.0,286046999.0,N
1704341895.8,286046999.5,N
1704341915.6,286046997.2,Y
1704341935.5,286046996.7,P
1704341955.3,286046999.2,N
1704341975.1,286046997.0,N
1704341995.9,286046998.9,N
1704342015.7,286046996.8,N
1704342035.6,286046997.1,N
1704342055.4,286046996.8,N
1704342075.2,286046999.6,N
1704342095.1,286046998.8,N
1704342096.0,286046998.8,N
1704342115.8,286046998.6,N
1704342135.7,286047000.9,N
1704342155.5,286047001.2,N
1704342175.3,286047000.5,N
1704342195.2,286047002.3,N
1704342215.9,286047000.0,N
1704342235.7,286047000.5,N
1704342255.6,286046999.9,N
1704342275.4,286047000.3,N
1704342295.3,286047001.0,N
1704342315.1,286047000.4,N
1704342335.8,286046998.7,N
1704342355.7,286047001.2,N
1704342375.5,286047000.5,N
1704342395.4,286047000.7,N
1704342415.2,286046998.1,N
1704342435.0,286047001.1,N
1704342435.9,286047001.1,N
1704342455.8,286047000.3,N
1704342475.6,286047000.1,N
1704342495.4,286047000.6,N
1704342515.3,286047000.4,N
1704342535.1,286047002.0,N
1704342555.9,286047000.2,N
1704342575.7,286047000.3,N
1704342595.5,286047000.6,N
1704342615.4,286047000.2,N
1704342635.2,286047000.0,N
1704342655.0,286047000.8,N
1704342655.9,286047000.8,N
1704342675.8,286046999.5,N
1704342695.7,286046997.7,N
1704342715.6,286046997.3,N
1704342735.4,286046997.0,N
1704342755.2,286046999.2,N
1704342775.1,286046999.4,N
1704342776.0,286046999.4,N
1704342795.8,286047000.8,N
1704342815.7,286047000.7,N
1704342835.5,286047000.9,N
1704342855.3,286047000.6,N
1704342875.2,286047000.0,N
1704342895.0,286047001.2,N
1704342895.9,286047001.2,N
1704342915.8,286046999.8,N
1704342935.6,286046998.5,N
1704342955.4,286047002.6,N
1704342975.3,286046999.7,N
1704342995.1,286047002.3,N
1704343015.9,286047002.6,N
1704343035.7,286046999.8,N
1704343055.5,286046998.5,N
1704343075.4,286047000.5,N
1704343095.2,286047001.0,N
1704343115.1,286046998.2,N
1704343116.0,286046998.2,N
1704343135.8,286046998.3,N
1704343155.7,286047000.8,N
1704343175.5,286046999.9,N
1704343195.3,286046999.8,N
1704343215.2,286047000.3,N
1704343235.0,286047000.0,N
1704343235.9,286047000.0,N
1704343255.7,286047000.2,N
1704343275.6,286046998.2,N
1704343295.4,286046998.8,N
1704343315.3,286046999.3,N
1704343335.1,286046999.3,N
1704343355.9,286046999.2,N
1704343375.7,286047001.1,N
1704343395.5,286046998.3,N
1704343415.4,286046999.5,N
1704343435.2,286046998.5,N
1704343455.0,286047000.7,N
1704343455.9,286047000.7,N
1704343475.8,286046998.6,N
1704343495.6,286046998.3,N
1704343515.5,286046998.4,N
1704343535.3,286047000.8,N
1704343555.1,286046998.9,N
1704343575.9,286046999.1,N
1704343595.7,286046996.9,Y
1704343615.5,286046998.8,P
1704343635.4,286047000.4,N
1704343655.2,286047001.2,N
1704343675.1,286046998.9,N
1704343676.0,286046998.9,N
1704343695.8,286046998.4,N
1704343715.7,286047001.1,N
1704343735.5,286047001.2,N
1704343755.3,286046998.3,N
1704343775.2,286047001.1,N
1704343795.0,286047000.7,N
1704343795.9,286047000.7,N
1704343815.8,286046998.2,N
1704343835.6,286047000.8,N
1704343855.5,286047001.1,N
1704343875.3,286047000.6,N
1704343895.1,286047001.1,N
1704343915.9,286047000.8,N
1704343935.7,286047000.5,N
1704343955.5,286047000.9,N
1704343975.4,286046999.7,N
1704343995.2,286047002.7,N
1704344015.0,286047002.5,N
1704344016.0,286047002.5,N
1704344035.8,286047002.0,N
1704344055.6,286047001.8,N
1704344075.5,286047004.0,Y
1704344095.6,286047003.6,P
1704344115.4,286047003.7,N
1704344135.2,286047003.7,N
1704344155.1,286047004.2,Y
1704344156.0,286047004.2,P
1704344175.8,286047000.6,N
1704344195.7,286046998.7,N
1704344215.5,286046999.3,N
1704344235.3,286046997.4,N
1704344255.2,286046995.7,N
1704344275.0,286046996.0,N
1704344275.9,286046996.0,N
1704344295.8,286046994.2,N
1704344315.6,286046994.6,N
1704344335.4,286046993.3,N
1704344355.3,286046993.3,N
1704344375.1,286046994.3,N
1704344395.9,286046993.8,N
